Skip Page Navigation
NASA JPL Caltech
NASA Logo - Jet Propulsion Laboratory + View the NASA Portal
+ Center for Near-Earth Object Studies
JPL Home Earth Solar System Stars & Galaxies Technology
JPL Solar System Dynamics
BODIES ORBITS EPHEMERIDES TOOLS PHYSICAL DATA DISCOVERY FAQ SITE MAP
IMPORTANT: The SSD Announcement email list is now available. Major changes are coming in the near future, including possible hostname and/or URL changes. To be notified of such changes, subscribe to this email list.

Please visit this page for more details.


JPL Small-Body Database Browser
Search: [ help ]  
392581 (2011 ST169)
Classification: Main-belt Asteroid          SPK-ID: 2392581
Ephemeris | Orbit Diagram | Orbital Elements | Mission Design | Physical Parameters | Discovery Circumstances | Close-Approach Data ]

[ show orbit diagram ]
Orbital Elements at Epoch 2458600.5 (2019-Apr-27.0) TDB
Reference: JPL 9 (heliocentric ecliptic J2000)
 Element Value Uncertainty (1-sigma)   Units 
e .04189271425757206 1.0543e-07  
a 3.081558453025169 6.076e-08 au
q 2.95246360528458 3.3151e-07 au
i 11.43321348792599 1.7276e-05 deg
node 21.85229844795614 4.5772e-05 deg
peri 106.4887072718241 0.0002123 deg
M 39.96429820799961 0.00020166 deg
tp 2458381.157023667044
(2018-Sep-19.65702367)
0.0011087 TDB
period 1975.850321927038
5.41
5.8438e-05
1.6e-07
d
yr
n .1822000361084505 5.3887e-09 deg/d
Q 3.210653300765758 6.3305e-08 au
  Orbit Determination Parameters
   # obs. used (total)      109  
   data-arc span      6757 days (18.50 yr)  
   first obs. used      2000-10-02  
   last obs. used      2019-04-03  
   planetary ephem.      DE431  
   SB-pert. ephem.      SB431-N16  
   condition code      0  
   norm. resid. RMS      .53637  
   source      ORB  
   producer      Otto Matic  
   solution date      2019-Jul-14 14:31:44  

Additional Information
 Earth MOID = 1.99057 au 
 Jupiter MOID = 1.81402 au 
 T_jup = 3.196 
[ show covariance matrix ]

Ephemeris | Orbit Diagram | Orbital Elements | Mission Design | Physical Parameters | Discovery Circumstances | Close-Approach Data ]

Physical Parameter Table
Parameter Symbol Value Units Sigma Reference Notes
absolute magnitude H 16.0   n/a MPO434455  

392581 (2011 ST169)          Discovered 2011-Sep-21 by Spacewatch at Kitt Peak
Reference: Last Updated: 2014-04-17

[ show close-approach data ]
Ephemeris | Orbit Diagram | Orbital Elements | Mission Design | Physical Parameters | Discovery Circumstances | Close-Approach Data ]
ABOUT SSD CREDITS/AWARDS PRIVACY/COPYRIGHT GLOSSARY LINKS
FirstGov
(server date/time)  
NASA Home Page
Site Manager:   Ryan S. Park
Webmaster  Alan B. Chamberlin